| time (UTC) | temp C | wind direction | speed KPH | gust KPH | rain 1hr cm | rain 24hr cm | rain mn cm | humidity % | barometer mb |
| 20260905031543 | 15 | 221 | 17.7 | 0.0 | 0.00 | 0.00 | 0.00 | 47 | 1003.4 |
| 20260905030040 | 15 | 196 | 14.5 | 0.0 | 0.00 | 0.00 | 0.00 | 47 | 1003.3 |
| 20260905024537 | 15 | 248 | 14.5 | 0.0 | 0.00 | 0.00 | 0.00 | 47 | 1003.1 |
| 20260905023040 | 15 | 194 | 9.7 | 0.0 | 0.00 | 0.00 | 0.00 | 47 | 1003.3 |
| 20260905021538 | 15 | 227 | 4.8 | 0.0 | 0.00 | 0.00 | 0.00 | 46 | 1003.5 |
| 20260905020036 | 16 | 239 | 6.4 | 0.0 | 0.00 | 0.00 | 0.00 | 45 | 1003.5 |
| 20260905014535 | 16 | 247 | 11.3 | 0.0 | 0.00 | 0.00 | 0.00 | 44 | 1003.2 |
| 20260905013034 | 16 | 260 | 11.3 | 0.0 | 0.00 | 0.00 | 0.00 | 43 | 1003.2 |
| 20260905011535 | 17 | 235 | 14.5 | 0.0 | 0.00 | 0.00 | 0.00 | 41 | 1003.2 |
| 20260905010033 | 18 | 245 | 11.3 | 0.0 | 0.00 | 0.00 | 0.00 | 39 | 1003.2 |
| 20260905004534 | 18 | 183 | 14.5 | 0.0 | 0.00 | 0.00 | 0.00 | 38 | 1003.2 |
| 20260905003034 | 18 | 205 | 12.9 | 0.0 | 0.00 | 0.00 | 0.00 | 40 | 1003.2 |
| 20260905001532 | 18 | 212 | 14.5 | 0.0 | 0.00 | 0.00 | 0.00 | 39 | 1003.3 |
| 20260905000031 | 18 | 245 | 12.9 | 0.0 | 0.00 | 0.00 | 0.00 | 41 | 1003.4 |
| 20260904234530 | 18 | 211 | 12.9 | 0.0 | 0.00 | 0.00 | 0.00 | 41 | 1003.4 |
| 20260904233030 | 19 | 168 | 14.5 | 0.0 | 0.00 | 0.00 | 0.00 | 38 | 1003.4 |
| 20260904231535 | 19 | 211 | 16.1 | 0.0 | 0.00 | 0.00 | 0.00 | 38 | 1003.3 |
| 20260904230030 | 20 | 171 | 14.5 | 0.0 | 0.00 | 0.00 | 0.00 | 38 | 1003.3 |
| 20260904224529 | 20 | 170 | 14.5 | 0.0 | 0.00 | 0.00 | 0.00 | 38 | 1003.2 |
| 20260904223030 | 20 | 207 | 16.1 | 0.0 | 0.00 | 0.00 | 0.00 | 38 | 1003.3 |
| 20260904221528 | 20 | 216 | 17.7 | 0.0 | 0.00 | 0.00 | 0.00 | 38 | 1003.3 |
| 20260904220028 | 20 | 236 | 14.5 | 0.0 | 0.00 | 0.00 | 0.00 | 38 | 1003.2 |
| 20260904214539 | 20 | 205 | 14.5 | 0.0 | 0.00 | 0.00 | 0.00 | 39 | 1003.5 |
| 20260904213032 | 19 | 232 | 11.3 | 0.0 | 0.00 | 0.00 | 0.00 | 40 | 1003.3 |
| 20260904211526 | 20 | 215 | 12.9 | 0.0 | 0.00 | 0.00 | 0.00 | 39 | 1003.4 |
| 20260904210028 | 18 | 250 | 11.3 | 0.0 | 0.00 | 0.00 | 0.00 | 43 | 1003.4 |
| 20260904204523 | 17 | 225 | 12.9 | 0.0 | 0.00 | 0.00 | 0.00 | 45 | 1003.4 |
| 20260904203017 | 17 | 211 | 12.9 | 0.0 | 0.00 | 0.00 | 0.00 | 46 | 1003.4 |
| 20260904201515 | 17 | 237 | 12.9 | 0.0 | 0.00 | 0.00 | 0.00 | 46 | 1003.4 |
| 20260904200019 | 17 | 202 | 14.5 | 0.0 | 0.00 | 0.00 | 0.00 | 45 | 1003.4 |
| 20260904194512 | 17 | 227 | 16.1 | 0.0 | 0.00 | 0.00 | 0.00 | 47 | 1003.4 |
| 20260904193010 | 17 | 238 | 16.1 | 0.0 | 0.00 | 0.00 | 0.00 | 48 | 1003.4 |
| 20260904191510 | 16 | 191 | 14.5 | 0.0 | 0.00 | 0.00 | 0.00 | 50 | 1003.3 |
| 20260904190006 | 16 | 217 | 12.9 | 0.0 | 0.00 | 0.00 | 0.00 | 51 | 1003.2 |
| 20260904184504 | 16 | 223 | 9.7 | 0.0 | 0.00 | 0.00 | 0.00 | 53 | 1003.1 |
| 20260904183003 | 15 | 261 | 11.3 | 0.0 | 0.00 | 0.00 | 0.00 | 54 | 1003.1 |
| 20260904181502 | 14 | 211 | 3.2 | 0.0 | 0.00 | 0.00 | 0.00 | 65 | 1003.2 |
| 20260904180000 | 14 | 59 | 1.6 | 0.0 | 0.00 | 0.00 | 0.00 | 68 | 1002.9 |
| 20260904174559 | 14 | 59 | 3.2 | 0.0 | 0.00 | 0.00 | 0.00 | 67 | 1003.0 |
| 20260904173126 | 14 | 78 | 1.6 | 0.0 | 0.00 | 0.00 | 0.00 | 66 | 1002.6 |
| 20260904171608 | 15 | 79 | 3.2 | 0.0 | 0.00 | 0.00 | 0.00 | 61 | 1002.6 |
| 20260904170056 | 15 | 223 | 4.8 | 0.0 | 0.00 | 0.00 | 0.00 | 53 | 1002.4 |
| 20260904164557 | 15 | 192 | 4.8 | 0.0 | 0.00 | 0.00 | 0.00 | 54 | 1002.1 |
| 20260904163053 | 15 | 234 | 6.4 | 0.0 | 0.00 | 0.00 | 0.00 | 55 | 1002.0 |
| 20260904161550 | 15 | 204 | 8.0 | 0.0 | 0.00 | 0.00 | 0.00 | 58 | 1001.7 |
| 20260904160049 | 14 | 228 | 8.0 | 0.0 | 0.00 | 0.00 | 0.00 | 59 | 1001.7 |
| 20260904154548 | 14 | 219 | 6.4 | 0.0 | 0.00 | 0.00 | 0.00 | 62 | 1001.6 |
| 20260904153047 | 14 | 239 | 9.7 | 0.0 | 0.00 | 0.00 | 0.00 | 62 | 1001.6 |
| 20260904151548 | 14 | 205 | 11.3 | 0.0 | 0.00 | 0.00 | 0.00 | 62 | 1001.6 |
| 20260904150105 | 14 | 199 | 11.3 | 0.0 | 0.00 | 0.00 | 0.00 | 60 | 1001.5 |
| 20260904144542 | 14 | 221 | 8.0 | 0.0 | 0.00 | 0.00 | 0.00 | 61 | 1001.3 |
| 20260904143041 | 13 | 242 | 6.4 | 0.0 | 0.00 | 0.00 | 0.00 | 62 | 1001.2 |
| 20260904141545 | 13 | 215 | 8.0 | 0.0 | 0.00 | 0.00 | 0.00 | 63 | 1001.1 |
| 20260904140041 | 13 | 226 | 9.7 | 0.0 | 0.00 | 0.00 | 0.00 | 64 | 1000.9 |
| 20260904134546 | 13 | 225 | 9.7 | 0.0 | 0.00 | 0.00 | 0.00 | 63 | 1000.9 |
| 20260904133033 | 14 | 204 | 11.3 | 0.0 | 0.00 | 0.00 | 0.00 | 56 | 1000.9 |
| 20260904131532 | 14 | 202 | 11.3 | 0.0 | 0.00 | 0.00 | 0.00 | 57 | 1000.7 |
| 20260904130035 | 14 | 223 | 12.9 | 0.0 | 0.00 | 0.00 | 0.00 | 56 | 1000.6 |
| 20260904124530 | 14 | 253 | 11.3 | 0.0 | 0.00 | 0.00 | 0.00 | 56 | 1000.5 |
| 20260904123029 | 14 | 206 | 11.3 | 0.0 | 0.00 | 0.00 | 0.00 | 56 | 1000.6 |
| 20260904121528 | 14 | 199 | 11.3 | 0.0 | 0.00 | 0.00 | 0.00 | 55 | 1000.6 |
| 20260904120027 | 15 | 209 | 9.7 | 0.0 | 0.00 | 0.00 | 0.00 | 54 | 1000.7 |
| 20260904114532 | 15 | 213 | 9.7 | 0.0 | 0.00 | 0.00 | 0.00 | 54 | 1000.4 |
| 20260904113025 | 15 | 215 | 11.3 | 0.0 | 0.00 | 0.00 | 0.00 | 53 | 1000.4 |
| 20260904111528 | 15 | 216 | 11.3 | 0.0 | 0.00 | 0.00 | 0.00 | 53 | 1000.4 |
| 20260904110023 | 15 | 207 | 9.7 | 0.0 | 0.00 | 0.00 | 0.00 | 53 | 1000.4 |
| 20260904104522 | 15 | 199 | 14.5 | 0.0 | 0.00 | 0.00 | 0.00 | 52 | 1000.3 |
| 20260904103021 | 15 | 190 | 12.9 | 0.0 | 0.00 | 0.00 | 0.00 | 52 | 999.9 |
| 20260904101520 | 15 | 206 | 12.9 | 0.0 | 0.00 | 0.00 | 0.00 | 52 | 1000.1 |
| 20260904100020 | 15 | 218 | 14.5 | 0.0 | 0.00 | 0.00 | 0.00 | 52 | 1000.1 |
| 20260904094532 | 15 | 220 | 14.5 | 0.0 | 0.00 | 0.00 | 0.00 | 51 | 1000.1 |
| 20260904093016 | 15 | 213 | 16.1 | 0.0 | 0.00 | 0.00 | 0.00 | 52 | 1000.3 |
| 20260904091516 | 15 | 206 | 19.3 | 0.0 | 0.00 | 0.00 | 0.00 | 52 | 1000.3 |
| 20260904090014 | 15 | 209 | 16.1 | 0.0 | 0.00 | 0.00 | 0.00 | 52 | 1000.5 |
| 20260904084514 | 15 | 181 | 14.5 | 0.0 | 0.00 | 0.00 | 0.00 | 52 | 1000.7 |
| 20260904083013 | 15 | 182 | 14.5 | 0.0 | 0.00 | 0.00 | 0.00 | 51 | 1000.7 |
| 20260904081509 | 15 | 192 | 14.5 | 0.0 | 0.00 | 0.00 | 0.00 | 51 | 1000.8 |
| 20260904080009 | 15 | 201 | 9.7 | 0.0 | 0.00 | 0.00 | 0.00 | 51 | 1001.0 |
| 20260904074502 | 15 | 213 | 11.3 | 0.0 | 0.00 | 0.00 | 0.00 | 50 | 1001.1 |
| 20260904073003 | 15 | 218 | 11.3 | 0.0 | 0.00 | 0.00 | 0.00 | 49 | 1001.2 |
| 20260904071559 | 15 | 203 | 11.3 | 0.0 | 0.00 | 0.00 | 0.00 | 47 | 1001.1 |
| 20260904070100 | 15 | 192 | 11.3 | 0.0 | 0.00 | 0.00 | 0.00 | 48 | 1001.1 |
| 20260904064556 | 14 | 203 | 9.7 | 0.0 | 0.00 | 0.00 | 0.00 | 52 | 1000.9 |
| 20260904063107 | 15 | 156 | 11.3 | 0.0 | 0.00 | 0.00 | 0.00 | 51 | 1001.0 |
| 20260904061556 | 15 | 209 | 9.7 | 0.0 | 0.00 | 0.00 | 0.00 | 51 | 1000.9 |
| 20260904060056 | 15 | 202 | 11.3 | 0.0 | 0.00 | 0.00 | 0.00 | 50 | 1000.9 |
| 20260904054555 | 15 | 210 | 11.3 | 0.0 | 0.00 | 0.00 | 0.00 | 51 | 1000.8 |
| 20260904053054 | 15 | 219 | 14.5 | 0.0 | 0.00 | 0.00 | 0.00 | 52 | 1000.9 |
| 20260904051602 | 15 | 220 | 14.5 | 0.0 | 0.00 | 0.00 | 0.00 | 53 | 1001.1 |
| 20260904050056 | 15 | 167 | 16.1 | 0.0 | 0.00 | 0.00 | 0.00 | 53 | 1001.2 |
| 20260904044553 | 14 | 193 | 17.7 | 0.0 | 0.00 | 0.00 | 0.00 | 55 | 1000.9 |
| 20260904043054 | 15 | 185 | 14.5 | 0.0 | 0.00 | 0.00 | 0.00 | 54 | 1001.2 |
| 20260904041551 | 15 | 209 | 17.7 | 0.0 | 0.00 | 0.00 | 0.00 | 51 | 1001.1 |
| 20260904034554 | 15 | 227 | 17.7 | 0.0 | 0.00 | 0.00 | 0.00 | 50 | 1001.3 |
| 20260904033050 | 15 | 199 | 17.7 | 0.0 | 0.00 | 0.00 | 0.00 | 50 | 1001.0 |